| time (UTC) | temp F | wind direction | speed MPH | gust MPH | rain 1hr in | rain 24hr in | rain mn in | humidity % | barometer mb |
| 20260906113042 | 49 | 252 | 17.0 | 28.0 | 0.10 | 0.10 | 0.09 | 94 | 1004.1 |
| 20260906111530 | 50 | 222 | 19.0 | 28.0 | 0.04 | 0.04 | 0.02 | 93 | 1003.8 |
| 20260906110030 | 52 | 215 | 19.0 | 32.0 | 0.02 | 0.02 | 0.00 | 90 | 1003.8 |
| 20260906110008 | 52 | 214 | 19.0 | 32.0 | 0.02 | 0.02 | 0.00 | 90 | 1003.8 |
| 20260906104540 | 58 | 320 | 14.0 | 24.0 | 0.01 | 0.01 | 0.01 | 92 | 1003.6 |
| 20260906103019 | 59 | 349 | 18.0 | 33.0 | 0.00 | 0.00 | 0.00 | 91 | 1003.5 |
| 20260906101508 | 59 | 26 | 20.0 | 32.0 | 0.00 | 0.00 | 0.00 | 91 | 1003.5 |
| 20260906100010 | 59 | 34 | 25.0 | 33.0 | 0.00 | 0.00 | 0.00 | 91 | 1003.4 |
| 20260906094518 | 59 | 360 | 22.0 | 33.0 | 0.00 | 0.00 | 0.00 | 91 | 1003.5 |
| 20260906093026 | 59 | 323 | 22.0 | 35.0 | 0.00 | 0.00 | 0.00 | 91 | 1003.3 |
| 20260906091500 | 59 | 358 | 21.0 | 36.0 | 0.00 | 0.00 | 0.00 | 91 | 1003.0 |
| 20260906084542 | 59 | 15 | 22.0 | 36.0 | 0.00 | 0.00 | 0.00 | 91 | 1003.0 |
| 20260906083014 | 58 | 18 | 17.0 | 31.0 | 0.00 | 0.00 | 0.00 | 90 | 1003.3 |
| 20260906081508 | 58 | 12 | 22.0 | 38.0 | 0.00 | 0.00 | 0.00 | 90 | 1003.3 |
| 20260906080021 | 58 | 43 | 21.0 | 35.0 | 0.00 | 0.00 | 0.00 | 90 | 1003.5 |
| 20260906074501 | 58 | 38 | 19.0 | 33.0 | 0.00 | 0.00 | 0.00 | 91 | 1003.7 |
| 20260906073022 | 57 | 358 | 21.0 | 37.0 | 0.00 | 0.00 | 0.00 | 91 | 1003.9 |
| 20260906071513 | 57 | 34 | 22.0 | 36.0 | 0.00 | 0.00 | 0.00 | 91 | 1004.0 |
| 20260906064556 | 57 | 15 | 19.0 | 39.0 | 0.00 | 0.00 | 0.00 | 91 | 1003.8 |
| 20260906063019 | 57 | 38 | 25.0 | 34.0 | 0.00 | 0.00 | 0.00 | 92 | 1003.9 |
| 20260906061519 | 56 | 3 | 22.0 | 40.0 | 0.00 | 0.00 | 0.00 | 92 | 1003.9 |
| 20260906060036 | 56 | 21 | 24.0 | 41.0 | 0.00 | 0.00 | 0.00 | 92 | 1004.1 |
| 20260906053039 | 55 | 12 | 27.0 | 40.0 | 0.00 | 0.00 | 0.00 | 92 | 1004.1 |
| 20260906051506 | 56 | 12 | 30.0 | 44.0 | 0.00 | 0.00 | 0.00 | 90 | 1004.0 |
| 20260906050035 | 55 | 74 | 24.0 | 41.0 | 0.00 | 0.00 | 0.00 | 91 | 1004.1 |
| 20260906044557 | 55 | 35 | 26.0 | 42.0 | 0.00 | 0.00 | 0.00 | 91 | 1004.1 |
| 20260906040005 | 55 | 12 | 32.0 | 41.0 | 0.00 | 0.00 | 0.00 | 89 | 1004.5 |
| 20260906034519 | 56 | 349 | 33.0 | 55.0 | 0.00 | 0.00 | 0.00 | 89 | 1005.1 |
| 20260906033046 | 56 | 7 | 35.0 | 47.0 | 0.00 | 0.00 | 0.00 | 90 | 1005.2 |
| 20260906031550 | 56 | 20 | 32.0 | 49.0 | 0.00 | 0.00 | 0.00 | 87 | 1005.9 |
| 20260906030018 | 56 | 360 | 34.0 | 45.0 | 0.00 | 0.00 | 0.00 | 87 | 1005.9 |
| 20260906024547 | 57 | 11 | 35.0 | 51.0 | 0.00 | 0.00 | 0.00 | 85 | 1006.3 |
| 20260906021602 | 57 | 331 | 27.0 | 46.0 | 0.00 | 0.00 | 0.00 | 85 | 1006.8 |
| 20260906021533 | 57 | 3 | 27.0 | 46.0 | 0.00 | 0.00 | 0.00 | 85 | 1006.8 |
| 20260906020104 | 57 | 360 | 29.0 | 43.0 | 0.00 | 0.00 | 0.00 | 85 | 1006.9 |
| 20260906014554 | 57 | 356 | 30.0 | 42.0 | 0.00 | 0.00 | 0.00 | 86 | 1007.4 |
| 20260906011520 | 57 | 346 | 18.0 | 30.0 | 0.00 | 0.00 | 0.00 | 86 | 1007.5 |
| 20260906010015 | 57 | 344 | 28.0 | 40.0 | 0.00 | 0.00 | 0.00 | 85 | 1008.0 |
| 20260906004551 | 57 | 340 | 27.0 | 40.0 | 0.00 | 0.00 | 0.00 | 85 | 1008.2 |
| 20260906003009 | 57 | 354 | 27.0 | 39.0 | 0.00 | 0.00 | 0.00 | 86 | 1008.6 |
| 20260906001516 | 57 | 349 | 26.0 | 37.0 | 0.00 | 0.00 | 0.00 | 86 | 1009.1 |
| 20260906000057 | 57 | 346 | 24.0 | 41.0 | 0.00 | 0.00 | 0.00 | 87 | 1009.5 |
| 20260905234507 | 57 | 34 | 24.0 | 40.0 | 0.00 | 0.00 | 0.00 | 86 | 1010.0 |
| 20260905233004 | 57 | 360 | 34.0 | 45.0 | 0.00 | 0.00 | 0.00 | 85 | 1010.0 |
| 20260905231504 | 58 | 7 | 29.0 | 49.0 | 0.00 | 0.00 | 0.00 | 86 | 1010.0 |
| 20260905230056 | 57 | 3 | 26.0 | 44.0 | 0.00 | 0.00 | 0.00 | 86 | 1010.4 |
| 20260905224552 | 57 | 357 | 25.0 | 41.0 | 0.00 | 0.00 | 0.00 | 87 | 1010.6 |
| 20260905223008 | 57 | 22 | 25.0 | 39.0 | 0.00 | 0.00 | 0.00 | 86 | 1010.6 |
| 20260905221536 | 57 | 5 | 22.0 | 42.0 | 0.00 | 0.00 | 0.00 | 86 | 1011.1 |
| 20260905220021 | 57 | 347 | 27.0 | 40.0 | 0.00 | 0.00 | 0.00 | 86 | 1011.2 |
| 20260905214533 | 57 | 343 | 26.0 | 40.0 | 0.00 | 0.00 | 0.00 | 86 | 1011.3 |
| 20260905213048 | 57 | 17 | 26.0 | 42.0 | 0.00 | 0.00 | 0.00 | 86 | 1011.2 |
| 20260905211550 | 57 | 9 | 28.0 | 37.0 | 0.00 | 0.00 | 0.00 | 86 | 1011.3 |
| 20260905210008 | 57 | 22 | 25.0 | 37.0 | 0.00 | 0.00 | 0.00 | 87 | 1011.5 |
| 20260905204558 | 57 | 19 | 26.0 | 38.0 | 0.00 | 0.00 | 0.00 | 87 | 1011.5 |
| 20260905204535 | 57 | 352 | 27.0 | 38.0 | 0.00 | 0.00 | 0.00 | 87 | 1011.5 |
| 20260905203042 | 57 | 14 | 23.0 | 38.0 | 0.00 | 0.00 | 0.00 | 88 | 1011.5 |
| 20260905201510 | 57 | 358 | 20.0 | 30.0 | 0.00 | 0.00 | 0.00 | 88 | 1011.6 |
| 20260905200025 | 56 | 5 | 20.0 | 27.0 | 0.00 | 0.00 | 0.00 | 88 | 1011.9 |
| 20260905194546 | 56 | 3 | 19.0 | 30.0 | 0.00 | 0.00 | 0.00 | 89 | 1012.0 |
| 20260905193015 | 56 | 2 | 19.0 | 33.0 | 0.00 | 0.00 | 0.00 | 89 | 1012.0 |
| 20260905191515 | 56 | 313 | 21.0 | 36.0 | 0.00 | 0.00 | 0.00 | 88 | 1012.2 |
| 20260905190042 | 56 | 16 | 23.0 | 33.0 | 0.00 | 0.00 | 0.00 | 88 | 1012.1 |
| 20260905184543 | 56 | 13 | 20.0 | 37.0 | 0.00 | 0.00 | 0.00 | 88 | 1012.4 |
| 20260905183043 | 57 | 36 | 21.0 | 34.0 | 0.00 | 0.00 | 0.00 | 88 | 1012.4 |
| 20260905180001 | 57 | 341 | 21.0 | 46.0 | 0.00 | 0.00 | 0.00 | 86 | 1012.5 |
| 20260905174600 | 57 | 348 | 22.0 | 34.0 | 0.00 | 0.00 | 0.00 | 86 | 1012.3 |
| 20260905174532 | 57 | 10 | 22.0 | 34.0 | 0.00 | 0.00 | 0.00 | 86 | 1012.3 |
| 20260905173052 | 57 | 344 | 16.0 | 33.0 | 0.00 | 0.00 | 0.00 | 85 | 1012.2 |
| 20260905130049 | 56 | 10 | 22.0 | 38.0 | 0.00 | 0.00 | 0.00 | 86 | 1012.8 |
| 20260905124554 | 56 | 353 | 20.0 | 38.0 | 0.00 | 0.00 | 0.00 | 85 | 1012.6 |
| 20260905123029 | 56 | 360 | 12.0 | 22.0 | 0.00 | 0.00 | 0.00 | 85 | 1012.7 |